When you browse on this site, cookies collect data to enhance your experience and personalize the content and advertising you see.
Visit our Privacy Policy to learn more. By continuing to use the site, you agree to this use of cookies and data.
  • In Hungary
  • List of Countries
  • For 7 days
  • Water Temperature
  • Satellite Maps
  • Weather Map
  • News
  • Weather Widgets
  • user-avatar
    Login

    Hourly Weather Chmielowice

    Today, 21 May, Tuesday

    Time Temperature Precipitation Wind Pressure Humidity
    00:00 +13°C° 0 mm 2 mps 729 mmHg 94%
    01:00 +13°C° 0 mm 2 mps 729 mmHg 95%
    02:00 +13°C° 0 mm 2 mps 729 mmHg 95%
    03:00 +12°C° 0 mm 1 mps 729 mmHg 95%
    04:00 +12°C° 0 mm 1 mps 729 mmHg 94%
    05:00 +13°C° 0 mm 1 mps 729 mmHg 92%
    06:00 +14°C° 0 mm 1 mps 729 mmHg 89%
    07:00 +15°C° 0 mm 1 mps 729 mmHg 88%
    08:00 +16°C° 0.5 mm 2 mps 729 mmHg 86%
    09:00 +16°C° 0.5 mm 2 mps 728 mmHg 84%
    10:00 +17°C° 0.5 mm 3 mps 728 mmHg 83%
    11:00 +17°C° 1.3 mm 3 mps 728 mmHg 85%
    12:00 +16°C° 1.3 mm 3 mps 728 mmHg 87%
    13:00 +16°C° 1.3 mm 3 mps 728 mmHg 89%
    14:00 +17°C° 1.5 mm 4 mps 727 mmHg 88%
    15:00 +17°C° 1.5 mm 4 mps 727 mmHg 86%
    16:00 +17°C° 1.5 mm 4 mps 727 mmHg 85%
    17:00 +17°C° 1.9 mm 4 mps 727 mmHg 87%
    18:00 +15°C° 1.9 mm 4 mps 727 mmHg 88%
    19:00 +16°C° 1.9 mm 3 mps 726 mmHg 90%
    20:00 +14°C° 0.7 mm 3 mps 726 mmHg 92%
    21:00 +13°C° 0.7 mm 3 mps 726 mmHg 94%
    22:00 +12°C° 0.7 mm 3 mps 727 mmHg 96%
    23:00 +12°C° 0.1 mm 3 mps 727 mmHg 96%

    Tomorrow, 22 May, Wednesday

    Time Temperature Precipitation Wind Pressure Humidity
    00:00 +13°C° 0.1 mm 3 mps 727 mmHg 96%
    01:00 +13°C° 0.1 mm 3 mps 727 mmHg 97%
    02:00 +14°C° 0.3 mm 2 mps 727 mmHg 97%
    03:00 +14°C° 0.3 mm 2 mps 726 mmHg 97%
    04:00 +14°C° 0.3 mm 2 mps 726 mmHg 97%
    05:00 +14°C° 0.4 mm 2 mps 727 mmHg 95%
    06:00 +14°C° 0.4 mm 2 mps 727 mmHg 93%
    07:00 +14°C° 0.4 mm 3 mps 727 mmHg 91%
    08:00 +14°C° 0.2 mm 3 mps 727 mmHg 90%
    09:00 +14°C° 0.2 mm 3 mps 728 mmHg 90%
    10:00 +14°C° 0.2 mm 3 mps 728 mmHg 90%
    11:00 +14°C° 0.1 mm 4 mps 728 mmHg 87%
    12:00 +15°C° 0.1 mm 4 mps 728 mmHg 84%
    13:00 +17°C° 0.1 mm 4 mps 728 mmHg 82%
    14:00 +17°C° 0.4 mm 4 mps 728 mmHg 82%
    15:00 +17°C° 0.4 mm 4 mps 728 mmHg 81%
    16:00 +18°C° 0.4 mm 4 mps 728 mmHg 81%
    17:00 +17°C° 1 mm 4 mps 728 mmHg 85%
    18:00 +16°C° 1 mm 3 mps 728 mmHg 88%
    19:00 +14°C° 1 mm 3 mps 729 mmHg 92%
    20:00 +14°C° 0.4 mm 3 mps 729 mmHg 93%
    21:00 +13°C° 0.4 mm 3 mps 729 mmHg 95%
    22:00 +13°C° 0.4 mm 3 mps 730 mmHg 96%
    23:00 +13°C° 0.5 mm 3 mps 730 mmHg 97%

    Day after tomorrow, 23 May, Thursday

    Time Temperature Precipitation Wind Pressure Humidity
    00:00 +13°C° 0.5 mm 3 mps 730 mmHg 97%
    01:00 +13°C° 0.5 mm 4 mps 731 mmHg 97%
    02:00 +13°C° 0.4 mm 4 mps 731 mmHg 97%
    03:00 +13°C° 0.4 mm 4 mps 731 mmHg 97%
    04:00 +13°C° 0.4 mm 4 mps 731 mmHg 96%
    05:00 +13°C° 0.6 mm 4 mps 731 mmHg 95%
    06:00 +14°C° 0.6 mm 5 mps 732 mmHg 95%
    07:00 +14°C° 0.6 mm 5 mps 732 mmHg 94%
    08:00 +14°C° 0.4 mm 5 mps 733 mmHg 93%
    09:00 +14°C° 0.4 mm 5 mps 733 mmHg 92%
    10:00 +15°C° 0.4 mm 6 mps 733 mmHg 90%
    11:00 +15°C° 0.6 mm 6 mps 734 mmHg 90%
    12:00 +15°C° 0.6 mm 7 mps 734 mmHg 89%
    13:00 +15°C° 0.6 mm 7 mps 734 mmHg 89%
    14:00 +15°C° 0.2 mm 7 mps 734 mmHg 90%
    15:00 +14°C° 0.2 mm 7 mps 734 mmHg 92%
    16:00 +13°C° 0.2 mm 6 mps 734 mmHg 93%
    17:00 +13°C° 0.1 mm 6 mps 735 mmHg 93%
    18:00 +13°C° 0.1 mm 6 mps 735 mmHg 93%
    19:00 +13°C° 0.1 mm 6 mps 735 mmHg 93%
    20:00 +12°C° 0 mm 5 mps 735 mmHg 93%
    21:00 +12°C° 0 mm 5 mps 735 mmHg 92%
    22:00 +12°C° 0 mm 5 mps 736 mmHg 92%
    23:00 +12°C° 0 mm 5 mps 736 mmHg 92%

    24 May, Friday

    Time Temperature Precipitation Wind Pressure Humidity
    00:00 +12°C° 0 mm 5 mps 736 mmHg 92%
    01:00 +12°C° 0 mm 5 mps 736 mmHg 93%
    02:00 +11°C° 0.2 mm 4 mps 736 mmHg 92%
    03:00 +11°C° 0.2 mm 4 mps 736 mmHg 92%
    04:00 +10°C° 0.2 mm 4 mps 736 mmHg 92%
    05:00 +10°C° 0.4 mm 4 mps 736 mmHg 90%
    06:00 +10°C° 0.4 mm 4 mps 736 mmHg 89%
    07:00 +10°C° 0.4 mm 4 mps 736 mmHg 88%
    08:00 +11°C° 0.1 mm 4 mps 736 mmHg 83%
    09:00 +12°C° 0.1 mm 4 mps 736 mmHg 79%
    10:00 +13°C° 0.1 mm 4 mps 736 mmHg 74%
    11:00 +14°C° 0 mm 4 mps 736 mmHg 71%
    12:00 +15°C° 0 mm 4 mps 736 mmHg 69%
    13:00 +17°C° 0 mm 3 mps 735 mmHg 66%
    14:00 +17°C° 0 mm 3 mps 735 mmHg 65%
    15:00 +18°C° 0 mm 3 mps 735 mmHg 65%
    16:00 +18°C° 0 mm 3 mps 735 mmHg 64%
    17:00 +17°C° 0 mm 3 mps 735 mmHg 68%
    18:00 +16°C° 0 mm 2 mps 734 mmHg 72%
    19:00 +15°C° 0 mm 2 mps 734 mmHg 76%
    20:00 +14°C° 0 mm 2 mps 734 mmHg 78%
    21:00 +13°C° 0 mm 2 mps 734 mmHg 80%
    22:00 +12°C° 0 mm 2 mps 734 mmHg 82%
    23:00 +12°C° 0 mm 2 mps 734 mmHg 83%

    25 May, Saturday

    Time Temperature Precipitation Wind Pressure Humidity
    00:00 +10°C° 0 mm 2 mps 734 mmHg 85%
    01:00 +10°C° 0 mm 2 mps 734 mmHg 87%
    02:00 +10°C° 0 mm 2 mps 734 mmHg 88%
    03:00 +9°C° 0 mm 2 mps 734 mmHg 89%
    04:00 +9°C° 0 mm 2 mps 734 mmHg 90%
    05:00 +11°C° 0 mm 3 mps 734 mmHg 85%
    06:00 +13°C° 0 mm 3 mps 734 mmHg 80%
    07:00 +14°C° 0 mm 4 mps 734 mmHg 75%
    08:00 +15°C° 0.2 mm 4 mps 734 mmHg 72%
    09:00 +17°C° 0.2 mm 5 mps 734 mmHg 70%
    10:00 +19°C° 0.2 mm 5 mps 734 mmHg 67%
    11:00 +19°C° 0.5 mm 6 mps 734 mmHg 68%
    12:00 +17°C° 0.5 mm 6 mps 734 mmHg 69%
    13:00 +17°C° 0.5 mm 6 mps 734 mmHg 69%
    14:00 +17°C° 0 mm 6 mps 733 mmHg 67%
    15:00 +17°C° 0 mm 6 mps 733 mmHg 65%
    16:00 +17°C° 0 mm 6 mps 733 mmHg 63%
    17:00 +15°C° 0 mm 5 mps 734 mmHg 69%
    18:00 +14°C° 0 mm 4 mps 734 mmHg 74%
    19:00 +12°C° 0 mm 3 mps 734 mmHg 80%
    20:00 +11°C° 0 mm 3 mps 734 mmHg 84%
    21:00 +10°C° 0 mm 2 mps 734 mmHg 88%
    22:00 +9°C° 0 mm 2 mps 734 mmHg 92%
    23:00 +9°C° 0 mm 2 mps 734 mmHg 93%

    26 May, Sunday

    Time Temperature Precipitation Wind Pressure Humidity
    00:00 +8°C° 0 mm 3 mps 734 mmHg 93%
    01:00 +8°C° 0 mm 3 mps 734 mmHg 94%
    02:00 +8°C° 0 mm 3 mps 734 mmHg 93%
    03:00 +8°C° 0 mm 3 mps 734 mmHg 92%
    04:00 +6°C° 0 mm 4 mps 733 mmHg 92%
    05:00 +7°C° 0 mm 4 mps 733 mmHg 88%
    06:00 +8°C° 0 mm 5 mps 733 mmHg 84%
    07:00 +10°C° 0 mm 6 mps 733 mmHg 81%
    08:00 +10°C° 0.1 mm 7 mps 733 mmHg 77%
    09:00 +10°C° 0.1 mm 7 mps 733 mmHg 74%
    10:00 +11°C° 0.1 mm 7 mps 733 mmHg 70%
    11:00 +11°C° 0 mm 7 mps 733 mmHg 70%
    12:00 +11°C° 0 mm 7 mps 733 mmHg 69%
    13:00 +11°C° 0 mm 7 mps 733 mmHg 68%
    14:00 +11°C° 0 mm 7 mps 733 mmHg 67%
    15:00 +11°C° 0 mm 7 mps 733 mmHg 67%
    16:00 +12°C° 0 mm 7 mps 733 mmHg 67%
    17:00 +11°C° 0 mm 6 mps 733 mmHg 70%
    18:00 +10°C° 0 mm 5 mps 733 mmHg 73%
    19:00 +10°C° 0 mm 4 mps 733 mmHg 76%
    20:00 +8°C° 0 mm 4 mps 733 mmHg 79%
    21:00 +8°C° 0 mm 3 mps 733 mmHg 81%
    22:00 +7°C° 0 mm 3 mps 733 mmHg 83%
    23:00 +7°C° 0 mm 3 mps 733 mmHg 84%
    Show more